Regional Weather Roundup
Issued by NWS

Home | Current Version | Previous Version | Text Only | Print | Product List | Glossary On
Versions: 1 2 3 4 5 6 7 8 9 10 11 12 13 14 15 16 17 18 19 20 21 22 23 24 25 26 27 28 29 30 31 32 33 34 35 36 37 38 39 40 41 42 43 44 45 46 47 48 49 50
000
ASUS45 KREV 300810
RWRNV
NEVADA REGIONAL WEATHER ROUNDUP
NATIONAL WEATHER SERVICE RENO NV
100 AM PDT SAT MAY 30 2015

NOTE: "FAIR" INDICATES FEW OR NO CLOUDS BELOW 12,000 FEET WITH NO
SIGNIFICANT WEATHER AND/OR OBSTRUCTIONS TO VISIBILITY.

NVZ001-003-004-300900-
WESTERN NEVADA

CITY           SKY/WX    TMP DP  RH WIND       PRES   REMARKS
RENO           PTCLDY    65  39  38 CALM      30.05S
CARSON CITY    FAIR      61  34  36 E5        30.08S
MINDEN         FAIR      52  37  58 E5        30.08
SLIDE MTN        N/A     50  23  34 W29         N/A
PYRAMID LAKE     N/A     68 N/A N/A S7          N/A
FALLON         NOT AVBL
LOVELOCK       MOCLDY    66  44  45 NE6       29.98S
HAWTHORNE      CLEAR     70  43  37 CALM      30.03R
$$

NVZ002-CAZ072-073-300900-
NORTHERN AND CENTRAL SIERRA

CITY           SKY/WX    TMP DP  RH WIND       PRES   REMARKS
S. LAKE TAHOE  MOCLDY    50  41  71 S5        30.18S
TRUCKEE        MOCLDY    46  37  71 CALM      30.17S
SQUAW VLY 8000   N/A     54  21  28 SW15        N/A
BLUE CANYON    MOCLDY    62  38  40 SE5       30.13F
MAMMOTH LAKES  FAIR      48  30  49 CALM      30.23F
BRIDGEPORT     FAIR      54  22  28 VRB3      30.19S
$$

NVZ030-031-036-300900-
NORTHERN NEVADA

CITY           SKY/WX    TMP DP  RH WIND       PRES   REMARKS
ELKO           PTCLDY    59  45  59 E3        30.09F
WINNEMUCCA     MOCLDY    62  43  49 E8        30.01S
WENDOVER       CLEAR     63  48  59 W3        30.11S
$$

NVZ035-037-300900-
CENTRAL NEVADA

CITY           SKY/WX    TMP DP  RH WIND       PRES   REMARKS
ELY            PTCLDY    57  42  57 S10       30.19S
EUREKA           N/A     57  43  59 CALM      30.13F
$$

NVZ013-014-300900-
SOUTH CENTRAL NEVADA

CITY           SKY/WX    TMP DP  RH WIND       PRES   REMARKS
TONOPAH        CLEAR     63  27  25 CALM      30.11S
$$

NVZ017-020-022-300900-
SOUTHERN NEVADA

CITY           SKY/WX    TMP DP  RH WIND       PRES   REMARKS
LAS VEGAS      PTCLDY    83  19   9 SW7       29.87R
N. LAS VEGAS   CLEAR     80  19  10 E7        29.90S
NELLIS AFB     CLEAR     79  22  12 NE7       29.88S
HENDERSON      CLEAR     79  25  13 S10       29.94S
MERCURY        PTCLDY    76  26  15 N3        29.96S
$$



USA.gov is the U.S. government's official web portal to all federal, state and local government web resources and services.